contact:dominique.lefevre@mio.osupytheas.fr, maurice.libes@osupytheas.fr, didier.mallarino@osupytheas.fr
Project:EMSO http://www.emso-fr.org/EMSO-France
Depth: 2436.0 m
Title:EMSO Ligure Ouest : Data MII capteur MICROCAT
DateTime_Computer,Latitude,Longitude,Temperature,Conductivity,Pressure,DateTime_Instrument
DateTime_Computer,Latitude,Longitude,degC,S m-1,dbar,DateTime_Instrument
2023-05-25T00:01:03Z,42.805,6.029,13.3026,4.60107,2470.787,2023-5-25T02:03:16Z
2023-05-25T00:04:06Z,42.805,6.029,13.3029,4.60112,2470.824,2023-5-25T02:06:19Z
2023-05-25T00:07:09Z,42.805,6.029,13.3024,4.60093,2470.833,2023-5-25T02:09:22Z
2023-05-25T00:10:12Z,42.805,6.029,13.3025,4.60110,2470.824,2023-5-25T02:12:25Z
2023-05-25T00:13:16Z,42.805,6.029,13.3026,4.60096,2470.787,2023-5-25T02:15:28Z
2023-05-25T00:16:19Z,42.805,6.029,13.3028,4.60094,2470.787,2023-5-25T02:18:31Z
2023-05-25T00:19:22Z,42.805,6.029,13.3026,4.60091,2470.787,2023-5-25T02:21:34Z
2023-05-25T00:22:25Z,42.805,6.029,13.3024,4.60106,2470.824,2023-5-25T02:24:37Z
2023-05-25T00:25:28Z,42.805,6.029,13.3032,4.60099,2470.787,2023-5-25T02:27:40Z
2023-05-25T00:28:31Z,42.805,6.029,13.3025,4.60096,2470.8,2023-5-25T02:30:43Z
2023-05-25T00:31:34Z,42.805,6.029,13.3036,4.60103,2470.8,2023-5-25T02:33:46Z
2023-05-25T00:34:37Z,42.805,6.029,13.3028,4.60090,2470.81,2023-5-25T02:36:49Z
2023-05-25T00:37:40Z,42.805,6.029,13.3031,4.60102,2470.787,2023-5-25T02:39:52Z
2023-05-25T00:40:43Z,42.805,6.029,13.3034,4.60104,2470.787,2023-5-25T02:42:56Z
2023-05-25T00:43:46Z,42.805,6.029,13.3021,4.60101,2470.763,2023-5-25T02:45:59Z
2023-05-25T00:46:49Z,42.805,6.029,13.3029,4.60102,2470.777,2023-5-25T02:49:02Z
2023-05-25T00:49:53Z,42.805,6.029,13.3027,4.60102,2470.8,2023-5-25T02:52:05Z
2023-05-25T00:52:56Z,42.805,6.029,13.3029,4.60108,2470.787,2023-5-25T02:55:08Z
2023-05-25T00:55:59Z,42.805,6.029,13.3031,4.60101,2470.8,2023-5-25T02:58:11Z
2023-05-25T00:59:02Z,42.805,6.029,13.3034,4.60119,2470.81,2023-5-25T03:01:14Z
2023-05-25T01:02:05Z,42.805,6.029,13.3028,4.60116,2470.787,2023-5-25T03:04:17Z
2023-05-25T01:05:08Z,42.805,6.029,13.3030,4.60105,2470.777,2023-5-25T03:07:20Z
2023-05-25T01:08:11Z,42.805,6.029,13.3024,4.60110,2470.763,2023-5-25T03:10:23Z
2023-05-25T01:11:14Z,42.805,6.029,13.3026,4.60108,2470.8,2023-5-25T03:13:26Z
2023-05-25T01:14:17Z,42.805,6.029,13.3034,4.60098,2470.763,2023-5-25T03:16:29Z
2023-05-25T01:17:20Z,42.805,6.029,13.3027,4.60102,2470.787,2023-5-25T03:19:33Z
2023-05-25T01:20:23Z,42.805,6.029,13.3026,4.60101,2470.787,2023-5-25T03:22:36Z
2023-05-25T01:23:26Z,42.805,6.029,13.3029,4.60099,2470.787,2023-5-25T03:25:39Z
2023-05-25T01:26:29Z,42.805,6.029,13.3034,4.60104,2470.777,2023-5-25T03:28:42Z
2023-05-25T01:29:33Z,42.805,6.029,13.3026,4.60106,2470.787,2023-5-25T03:31:45Z
2023-05-25T01:32:36Z,42.805,6.029,13.3028,4.60104,2470.763,2023-5-25T03:34:48Z
2023-05-25T01:35:39Z,42.805,6.029,13.3026,4.60095,2470.787,2023-5-25T03:37:51Z
2023-05-25T01:38:42Z,42.805,6.029,13.3030,4.60101,2470.787,2023-5-25T03:40:54Z
2023-05-25T01:41:45Z,42.805,6.029,13.3029,4.60099,2470.726,2023-5-25T03:43:57Z
2023-05-25T01:44:48Z,42.805,6.029,13.3023,4.60091,2470.763,2023-5-25T03:47:00Z
2023-05-25T01:47:51Z,42.805,6.029,13.3027,4.60104,2470.763,2023-5-25T03:50:03Z
2023-05-25T01:50:54Z,42.805,6.029,13.3027,4.60100,2470.754,2023-5-25T03:53:06Z
2023-05-25T01:53:57Z,42.805,6.029,13.3031,4.60111,2470.754,2023-5-25T03:56:09Z
2023-05-25T01:57:00Z,42.805,6.029,13.3027,4.60108,2470.787,2023-5-25T03:59:12Z
2023-05-25T02:00:03Z,42.805,6.029,13.3029,4.60104,2470.763,2023-5-25T04:02:16Z
2023-05-25T02:03:06Z,42.805,6.029,13.3026,4.60100,2470.74,2023-5-25T04:05:19Z
2023-05-25T02:06:09Z,42.805,6.029,13.3028,4.60099,2470.763,2023-5-25T04:08:22Z
2023-05-25T02:09:12Z,42.805,6.029,13.3030,4.60103,2470.717,2023-5-25T04:11:25Z
2023-05-25T02:12:16Z,42.805,6.029,13.3025,4.60104,2470.74,2023-5-25T04:14:28Z
2023-05-25T02:15:19Z,42.805,6.029,13.3029,4.60098,2470.777,2023-5-25T04:17:31Z
2023-05-25T02:18:22Z,42.805,6.029,13.3025,4.60095,2470.74,2023-5-25T04:20:34Z
2023-05-25T02:21:25Z,42.805,6.029,13.3024,4.60101,2470.777,2023-5-25T04:23:37Z
2023-05-25T02:24:28Z,42.805,6.029,13.3029,4.60100,2470.717,2023-5-25T04:26:40Z
2023-05-25T02:27:31Z,42.805,6.029,13.3027,4.60097,2470.74,2023-5-25T04:29:43Z
2023-05-25T02:30:34Z,42.805,6.029,13.3030,4.60102,2470.787,2023-5-25T04:32:46Z
2023-05-25T02:33:37Z,42.805,6.029,13.3034,4.60107,2470.754,2023-5-25T04:35:49Z
2023-05-25T02:36:40Z,42.805,6.029,13.3029,4.60097,2470.74,2023-5-25T04:38:53Z
2023-05-25T02:39:43Z,42.805,6.029,13.3032,4.60104,2470.74,2023-5-25T04:41:56Z
2023-05-25T02:42:46Z,42.805,6.029,13.3031,4.60111,2470.754,2023-5-25T04:44:59Z
2023-05-25T02:45:49Z,42.805,6.029,13.3026,4.60101,2470.777,2023-5-25T04:48:02Z
2023-05-25T02:48:53Z,42.805,6.029,13.3025,4.60094,2470.74,2023-5-25T04:51:05Z
2023-05-25T02:51:56Z,42.805,6.029,13.3027,4.60094,2470.74,2023-5-25T04:54:08Z
2023-05-25T02:54:59Z,42.805,6.029,13.3022,4.60099,2470.73,2023-5-25T04:57:11Z
2023-05-25T02:58:02Z,42.805,6.029,13.3028,4.60104,2470.74,2023-5-25T05:00:14Z
2023-05-25T03:01:05Z,42.805,6.029,13.3026,4.60089,2470.74,2023-5-25T05:03:17Z
2023-05-25T03:04:08Z,42.805,6.029,13.3030,4.60097,2470.717,2023-5-25T05:06:20Z
2023-05-25T03:07:11Z,42.805,6.029,13.3028,4.60091,2470.73,2023-5-25T05:09:23Z
2023-05-25T03:10:14Z,42.805,6.029,13.3028,4.60089,2470.717,2023-5-25T05:12:26Z
2023-05-25T03:13:17Z,42.805,6.029,13.3025,4.60093,2470.74,2023-5-25T05:15:29Z
2023-05-25T03:16:20Z,42.805,6.029,13.3022,4.60099,2470.726,2023-5-25T05:18:33Z
2023-05-25T03:19:23Z,42.805,6.029,13.3028,4.60104,2470.717,2023-5-25T05:21:36Z
2023-05-25T03:22:26Z,42.805,6.029,13.3026,4.60103,2470.787,2023-5-25T05:24:39Z
2023-05-25T03:25:29Z,42.805,6.029,13.3029,4.60097,2470.73,2023-5-25T05:27:42Z
2023-05-25T03:28:33Z,42.805,6.029,13.3024,4.60087,2470.717,2023-5-25T05:30:45Z
2023-05-25T03:31:36Z,42.805,6.029,13.3026,4.60095,2470.74,2023-5-25T05:33:48Z
2023-05-25T03:34:39Z,42.805,6.029,13.3023,4.60096,2470.717,2023-5-25T05:36:51Z
2023-05-25T03:37:42Z,42.805,6.029,13.3024,4.60094,2470.717,2023-5-25T05:39:54Z
2023-05-25T03:40:45Z,42.805,6.029,13.3026,4.60092,2470.754,2023-5-25T05:42:57Z
2023-05-25T03:43:48Z,42.805,6.029,13.3028,4.60104,2470.73,2023-5-25T05:46:00Z
2023-05-25T03:46:51Z,42.805,6.029,13.3031,4.60099,2470.67,2023-5-25T05:49:03Z
2023-05-25T03:49:54Z,42.805,6.029,13.3024,4.60104,2470.73,2023-5-25T05:52:06Z
2023-05-25T03:52:57Z,42.805,6.029,13.3029,4.60092,2470.74,2023-5-25T05:55:09Z
2023-05-25T03:56:00Z,42.805,6.029,13.3033,4.60095,2470.717,2023-5-25T05:58:13Z
2023-05-25T03:59:03Z,42.805,6.029,13.3029,4.60090,2470.717,2023-5-25T06:01:16Z
2023-05-25T04:02:06Z,42.805,6.029,13.3028,4.60103,2470.693,2023-5-25T06:04:19Z
2023-05-25T04:05:10Z,42.805,6.029,13.3031,4.60097,2470.717,2023-5-25T06:07:22Z
2023-05-25T04:08:13Z,42.805,6.029,13.3026,4.60107,2470.717,2023-5-25T06:10:25Z
2023-05-25T04:11:16Z,42.805,6.029,13.3030,4.60110,2470.73,2023-5-25T06:13:28Z
2023-05-25T04:14:19Z,42.805,6.029,13.3028,4.60104,2470.717,2023-5-25T06:16:31Z
2023-05-25T04:17:22Z,42.805,6.029,13.3026,4.60097,2470.707,2023-5-25T06:19:34Z
2023-05-25T04:20:25Z,42.805,6.029,13.3028,4.60095,2470.707,2023-5-25T06:22:37Z
2023-05-25T04:23:28Z,42.805,6.029,13.3031,4.60096,2470.717,2023-5-25T06:25:40Z
2023-05-25T04:26:31Z,42.805,6.029,13.3024,4.60094,2470.693,2023-5-25T06:28:43Z
2023-05-25T04:29:34Z,42.805,6.029,13.3024,4.60100,2470.717,2023-5-25T06:31:46Z
2023-05-25T04:32:37Z,42.805,6.029,13.3030,4.60101,2470.693,2023-5-25T06:34:50Z
2023-05-25T04:35:40Z,42.805,6.029,13.3029,4.60092,2470.73,2023-5-25T06:37:53Z
2023-05-25T04:38:43Z,42.805,6.029,13.3029,4.60098,2470.693,2023-5-25T06:40:56Z
2023-05-25T04:41:46Z,42.805,6.029,13.3026,4.60106,2470.693,2023-5-25T06:43:59Z
2023-05-25T04:44:50Z,42.805,6.029,13.3027,4.60097,2470.67,2023-5-25T06:47:02Z
2023-05-25T04:47:53Z,42.805,6.029,13.3026,4.60093,2470.707,2023-5-25T06:50:05Z
2023-05-25T04:50:56Z,42.805,6.029,13.3026,4.60102,2470.717,2023-5-25T06:53:08Z
2023-05-25T04:53:59Z,42.805,6.029,13.3029,4.60105,2470.67,2023-5-25T06:56:11Z
2023-05-25T04:57:02Z,42.805,6.029,13.3024,4.60106,2470.67,2023-5-25T06:59:14Z
2023-05-25T05:00:05Z,42.805,6.029,13.3021,4.60098,2470.693,2023-5-25T07:02:17Z
2023-05-25T05:03:08Z,42.805,6.029,13.3024,4.60094,2470.67,2023-5-25T07:05:20Z
2023-05-25T05:06:11Z,42.805,6.029,13.3026,4.60098,2470.67,2023-5-25T07:08:23Z
2023-05-25T05:09:14Z,42.805,6.029,13.3027,4.60106,2470.717,2023-5-25T07:11:26Z
2023-05-25T05:12:17Z,42.805,6.029,13.3027,4.60095,2470.67,2023-5-25T07:14:30Z
2023-05-25T05:15:20Z,42.805,6.029,13.3024,4.60089,2470.646,2023-5-25T07:17:33Z
2023-05-25T05:18:23Z,42.805,6.029,13.3031,4.60097,2470.707,2023-5-25T07:20:36Z
2023-05-25T05:21:27Z,42.805,6.029,13.3027,4.60100,2470.67,2023-5-25T07:23:39Z
2023-05-25T05:24:30Z,42.805,6.029,13.3024,4.60096,2470.684,2023-5-25T07:26:42Z
2023-05-25T05:27:33Z,42.805,6.029,13.3026,4.60108,2470.67,2023-5-25T07:29:45Z
2023-05-25T05:30:36Z,42.805,6.029,13.3030,4.60104,2470.693,2023-5-25T07:32:48Z
2023-05-25T05:33:39Z,42.805,6.029,13.3024,4.60095,2470.67,2023-5-25T07:35:51Z
2023-05-25T05:36:42Z,42.805,6.029,13.3027,4.60088,2470.693,2023-5-25T07:38:54Z
2023-05-25T05:39:45Z,42.805,6.029,13.3034,4.60095,2470.67,2023-5-25T07:41:57Z
2023-05-25T05:42:48Z,42.805,6.029,13.3029,4.60106,2470.684,2023-5-25T07:45:00Z
2023-05-25T05:45:51Z,42.805,6.029,13.3026,4.60100,2470.684,2023-5-25T07:48:04Z
2023-05-25T05:48:54Z,42.805,6.029,13.3023,4.60102,2470.717,2023-5-25T07:51:07Z
2023-05-25T05:51:57Z,42.805,6.029,13.3034,4.60090,2470.646,2023-5-25T07:54:10Z
2023-05-25T05:55:00Z,42.805,6.029,13.3022,4.60087,2470.67,2023-5-25T07:57:13Z
2023-05-25T05:58:03Z,42.805,6.029,13.3024,4.60092,2470.684,2023-5-25T08:00:16Z
2023-05-25T06:01:07Z,42.805,6.029,13.3023,4.60099,2470.707,2023-5-25T08:03:19Z
2023-05-25T06:04:10Z,42.805,6.029,13.3026,4.60106,2470.67,2023-5-25T08:06:22Z
2023-05-25T06:07:13Z,42.805,6.029,13.3027,4.60098,2470.693,2023-5-25T08:09:25Z
2023-05-25T06:10:16Z,42.805,6.029,13.3025,4.60101,2470.707,2023-5-25T08:12:28Z
2023-05-25T06:13:19Z,42.805,6.029,13.3029,4.60109,2470.684,2023-5-25T08:15:31Z
2023-05-25T06:16:22Z,42.805,6.029,13.3028,4.60097,2470.684,2023-5-25T08:18:34Z
2023-05-25T06:19:25Z,42.805,6.029,13.3024,4.60097,2470.661,2023-5-25T08:21:37Z
2023-05-25T06:22:28Z,42.805,6.029,13.3021,4.60092,2470.67,2023-5-25T08:24:40Z
2023-05-25T06:25:31Z,42.805,6.029,13.3025,4.60092,2470.693,2023-5-25T08:27:43Z
2023-05-25T06:28:34Z,42.805,6.029,13.3031,4.60099,2470.67,2023-5-25T08:30:47Z
2023-05-25T06:31:39Z,42.805,6.029,13.3029,4.60097,2470.67,2023-5-25T08:33:51Z
2023-05-25T06:34:42Z,42.805,6.029,13.3027,4.60098,2470.67,2023-5-25T08:36:54Z
2023-05-25T06:37:45Z,42.805,6.029,13.3025,4.60088,2470.684,2023-5-25T08:39:58Z
2023-05-25T06:40:48Z,42.805,6.029,13.3024,4.60095,2470.67,2023-5-25T08:43:01Z
2023-05-25T06:43:51Z,42.805,6.029,13.3026,4.60093,2470.684,2023-5-25T08:46:04Z
2023-05-25T06:46:54Z,42.805,6.029,13.3026,4.60094,2470.684,2023-5-25T08:49:07Z
2023-05-25T06:49:58Z,42.805,6.029,13.3024,4.60095,2470.637,2023-5-25T08:52:10Z
2023-05-25T06:53:01Z,42.805,6.029,13.3024,4.60088,2470.684,2023-5-25T08:55:13Z
2023-05-25T06:56:04Z,42.805,6.029,13.3026,4.60097,2470.67,2023-5-25T08:58:16Z
2023-05-25T06:59:07Z,42.805,6.029,13.3026,4.60090,2470.67,2023-5-25T09:01:19Z
2023-05-25T07:02:10Z,42.805,6.029,13.3022,4.60084,2470.67,2023-5-25T09:04:22Z
2023-05-25T07:05:13Z,42.805,6.029,13.3024,4.60088,2470.67,2023-5-25T09:07:25Z
2023-05-25T07:08:16Z,42.805,6.029,13.3026,4.60085,2470.693,2023-5-25T09:10:28Z
2023-05-25T07:11:19Z,42.805,6.029,13.3024,4.60090,2470.707,2023-5-25T09:13:31Z
2023-05-25T07:14:22Z,42.805,6.029,13.3026,4.60087,2470.67,2023-5-25T09:16:34Z
2023-05-25T07:17:25Z,42.805,6.029,13.3026,4.60092,2470.693,2023-5-25T09:19:38Z
2023-05-25T07:20:28Z,42.805,6.029,13.3024,4.60095,2470.67,2023-5-25T09:22:41Z
2023-05-25T07:23:31Z,42.805,6.029,13.3025,4.60087,2470.684,2023-5-25T09:25:44Z
2023-05-25T07:26:34Z,42.805,6.029,13.3026,4.60089,2470.67,2023-5-25T09:28:47Z
2023-05-25T07:29:38Z,42.805,6.029,13.3021,4.60089,2470.67,2023-5-25T09:31:50Z
2023-05-25T07:32:41Z,42.805,6.029,13.3026,4.60103,2470.707,2023-5-25T09:34:53Z
2023-05-25T07:35:44Z,42.805,6.029,13.3018,4.60085,2470.707,2023-5-25T09:37:56Z
2023-05-25T07:38:47Z,42.805,6.029,13.3026,4.60099,2470.707,2023-5-25T09:40:59Z
2023-05-25T07:41:50Z,42.805,6.029,13.3025,4.60091,2470.693,2023-5-25T09:44:02Z
2023-05-25T07:44:53Z,42.805,6.029,13.3024,4.60091,2470.646,2023-5-25T09:47:05Z
2023-05-25T07:47:56Z,42.805,6.029,13.3028,4.60090,2470.693,2023-5-25T09:50:08Z
2023-05-25T07:50:59Z,42.805,6.029,13.3029,4.60084,2470.693,2023-5-25T09:53:11Z
2023-05-25T07:54:02Z,42.805,6.029,13.3027,4.60089,2470.693,2023-5-25T09:56:15Z
2023-05-25T07:57:05Z,42.805,6.029,13.3024,4.60088,2470.684,2023-5-25T09:59:18Z
2023-05-25T08:00:08Z,42.805,6.029,13.3024,4.60087,2470.693,2023-5-25T10:02:21Z
2023-05-25T08:03:11Z,42.805,6.029,13.3024,4.60086,2470.707,2023-5-25T10:05:24Z
2023-05-25T08:06:15Z,42.805,6.029,13.3022,4.60091,2470.67,2023-5-25T10:08:27Z
2023-05-25T08:09:18Z,42.805,6.029,13.3021,4.60086,2470.67,2023-5-25T10:11:30Z
2023-05-25T08:12:21Z,42.805,6.029,13.3023,4.60102,2470.67,2023-5-25T10:14:33Z
2023-05-25T08:15:24Z,42.805,6.029,13.3028,4.60089,2470.73,2023-5-25T10:17:36Z
2023-05-25T08:18:27Z,42.805,6.029,13.3020,4.60089,2470.717,2023-5-25T10:20:39Z
2023-05-25T08:21:30Z,42.805,6.029,13.3024,4.60091,2470.717,2023-5-25T10:23:42Z
2023-05-25T08:24:33Z,42.805,6.029,13.3026,4.60089,2470.73,2023-5-25T10:26:45Z
2023-05-25T08:27:36Z,42.805,6.029,13.3023,4.60092,2470.693,2023-5-25T10:29:48Z
2023-05-25T08:30:38Z,42.805,6.029,13.3026,4.60094,2470.717,2023-5-25T10:32:50Z
2023-05-25T08:33:41Z,42.805,6.029,13.3026,4.60086,2470.717,2023-5-25T10:35:53Z
2023-05-25T08:36:44Z,42.805,6.029,13.3028,4.60084,2470.73,2023-5-25T10:38:56Z
2023-05-25T08:39:47Z,42.805,6.029,13.3023,4.60084,2470.67,2023-5-25T10:41:59Z
2023-05-25T08:42:50Z,42.805,6.029,13.3026,4.60088,2470.693,2023-5-25T10:45:02Z
2023-05-25T08:45:53Z,42.805,6.029,13.3024,4.60085,2470.717,2023-5-25T10:48:05Z
2023-05-25T08:48:56Z,42.805,6.029,13.3025,4.60097,2470.693,2023-5-25T10:51:09Z
2023-05-25T08:51:59Z,42.805,6.029,13.3024,4.60087,2470.693,2023-5-25T10:54:12Z
2023-05-25T08:55:02Z,42.805,6.029,13.3024,4.60089,2470.693,2023-5-25T10:57:15Z
2023-05-25T08:58:05Z,42.805,6.029,13.3019,4.60084,2470.707,2023-5-25T11:00:18Z
2023-05-25T09:01:09Z,42.805,6.029,13.3021,4.60087,2470.693,2023-5-25T11:03:21Z
2023-05-25T09:04:12Z,42.805,6.029,13.3022,4.60085,2470.67,2023-5-25T11:06:24Z
2023-05-25T09:07:15Z,42.805,6.029,13.3026,4.60085,2470.707,2023-5-25T11:09:27Z
2023-05-25T09:10:18Z,42.805,6.029,13.3022,4.60084,2470.73,2023-5-25T11:12:30Z
2023-05-25T09:13:21Z,42.805,6.029,13.3019,4.60084,2470.73,2023-5-25T11:15:33Z
2023-05-25T09:16:24Z,42.805,6.029,13.3024,4.60082,2470.73,2023-5-25T11:18:36Z
2023-05-25T09:19:27Z,42.805,6.029,13.3026,4.60088,2470.717,2023-5-25T11:21:39Z
2023-05-25T09:22:30Z,42.805,6.029,13.3024,4.60102,2470.707,2023-5-25T11:24:42Z
2023-05-25T09:25:33Z,42.805,6.029,13.3020,4.60094,2470.693,2023-5-25T11:27:46Z
2023-05-25T09:28:36Z,42.805,6.029,13.3029,4.60084,2470.73,2023-5-25T11:30:49Z
2023-05-25T09:31:39Z,42.805,6.029,13.3021,4.60083,2470.73,2023-5-25T11:33:52Z
2023-05-25T09:34:42Z,42.805,6.029,13.3025,4.60084,2470.693,2023-5-25T11:36:55Z
2023-05-25T09:37:46Z,42.805,6.029,13.3024,4.60085,2470.693,2023-5-25T11:39:58Z
2023-05-25T09:40:49Z,42.805,6.029,13.3023,4.60086,2470.717,2023-5-25T11:43:01Z
2023-05-25T09:43:52Z,42.805,6.029,13.3022,4.60086,2470.73,2023-5-25T11:46:04Z
2023-05-25T09:46:55Z,42.805,6.029,13.3018,4.60084,2470.717,2023-5-25T11:49:07Z
2023-05-25T09:49:58Z,42.805,6.029,13.3024,4.60097,2470.707,2023-5-25T11:52:10Z
2023-05-25T09:53:01Z,42.805,6.029,13.3023,4.60087,2470.717,2023-5-25T11:55:13Z
2023-05-25T09:56:04Z,42.805,6.029,13.3024,4.60094,2470.73,2023-5-25T11:58:16Z
2023-05-25T09:59:07Z,42.805,6.029,13.3024,4.60088,2470.693,2023-5-25T12:01:19Z
2023-05-25T10:02:10Z,42.805,6.029,13.3023,4.60086,2470.74,2023-5-25T12:04:23Z
2023-05-25T10:05:13Z,42.805,6.029,13.3026,4.60087,2470.693,2023-5-25T12:07:26Z
2023-05-25T10:08:16Z,42.805,6.029,13.3024,4.60085,2470.73,2023-5-25T12:10:29Z
2023-05-25T10:11:20Z,42.805,6.029,13.3025,4.60087,2470.73,2023-5-25T12:13:32Z
2023-05-25T10:14:23Z,42.805,6.029,13.3021,4.60092,2470.754,2023-5-25T12:16:35Z
2023-05-25T10:17:26Z,42.805,6.029,13.3023,4.60093,2470.717,2023-5-25T12:19:38Z
2023-05-25T10:20:29Z,42.805,6.029,13.3026,4.60087,2470.717,2023-5-25T12:22:41Z
2023-05-25T10:23:32Z,42.805,6.029,13.3025,4.60099,2470.73,2023-5-25T12:25:44Z
2023-05-25T10:26:35Z,42.805,6.029,13.3025,4.60088,2470.707,2023-5-25T12:28:47Z
2023-05-25T10:29:38Z,42.805,6.029,13.3033,4.60098,2470.74,2023-5-25T12:31:50Z
2023-05-25T10:32:41Z,42.805,6.029,13.3022,4.60084,2470.707,2023-5-25T12:34:53Z
2023-05-25T10:35:44Z,42.805,6.029,13.3026,4.60091,2470.693,2023-5-25T12:37:57Z
2023-05-25T10:38:47Z,42.805,6.029,13.3022,4.60087,2470.73,2023-5-25T12:41:00Z
2023-05-25T10:41:50Z,42.805,6.029,13.3024,4.60086,2470.73,2023-5-25T12:44:03Z
2023-05-25T10:44:53Z,42.805,6.029,13.3024,4.60082,2470.693,2023-5-25T12:47:06Z
2023-05-25T10:47:57Z,42.805,6.029,13.3020,4.60086,2470.717,2023-5-25T12:50:09Z
2023-05-25T10:51:00Z,42.805,6.029,13.3022,4.60092,2470.693,2023-5-25T12:53:12Z
2023-05-25T10:54:03Z,42.805,6.029,13.3029,4.60090,2470.73,2023-5-25T12:56:15Z
2023-05-25T10:57:06Z,42.805,6.029,13.3031,4.60098,2470.693,2023-5-25T12:59:18Z
2023-05-25T11:00:09Z,42.805,6.029,13.3023,4.60091,2470.67,2023-5-25T13:02:21Z
2023-05-25T11:03:12Z,42.805,6.029,13.3028,4.60090,2470.717,2023-5-25T13:05:24Z
2023-05-25T11:06:15Z,42.805,6.029,13.3023,4.60094,2470.707,2023-5-25T13:08:27Z
2023-05-25T11:09:18Z,42.805,6.029,13.3024,4.60088,2470.693,2023-5-25T13:11:30Z
2023-05-25T11:12:21Z,42.805,6.029,13.3021,4.60087,2470.717,2023-5-25T13:14:34Z
2023-05-25T11:15:24Z,42.805,6.029,13.3027,4.60092,2470.73,2023-5-25T13:17:37Z
2023-05-25T11:18:27Z,42.805,6.029,13.3029,4.60103,2470.693,2023-5-25T13:20:40Z
2023-05-25T11:21:30Z,42.805,6.029,13.3024,4.60084,2470.693,2023-5-25T13:23:43Z
2023-05-25T11:24:34Z,42.805,6.029,13.3028,4.60089,2470.693,2023-5-25T13:26:46Z
2023-05-25T11:27:37Z,42.805,6.029,13.3027,4.60095,2470.684,2023-5-25T13:29:49Z
2023-05-25T11:30:40Z,42.805,6.029,13.3029,4.60109,2470.693,2023-5-25T13:32:52Z
2023-05-25T11:33:43Z,42.805,6.029,13.3028,4.60104,2470.693,2023-5-25T13:35:55Z
2023-05-25T11:36:46Z,42.805,6.029,13.3029,4.60092,2470.684,2023-5-25T13:38:58Z
2023-05-25T11:39:49Z,42.805,6.029,13.3038,4.60097,2470.707,2023-5-25T13:42:01Z
2023-05-25T11:42:52Z,42.805,6.029,13.3024,4.60104,2470.67,2023-5-25T13:45:04Z
2023-05-25T11:45:55Z,42.805,6.029,13.3021,4.60081,2470.67,2023-5-25T13:48:08Z
2023-05-25T11:48:58Z,42.805,6.029,13.3029,4.60095,2470.693,2023-5-25T13:51:11Z
2023-05-25T11:52:01Z,42.805,6.029,13.3026,4.60090,2470.67,2023-5-25T13:54:14Z
2023-05-25T11:55:04Z,42.805,6.029,13.3024,4.60101,2470.67,2023-5-25T13:57:17Z
2023-05-25T11:58:08Z,42.805,6.029,13.3026,4.60089,2470.67,2023-5-25T14:00:20Z
2023-05-25T12:01:11Z,42.805,6.029,13.3026,4.60089,2470.693,2023-5-25T14:03:23Z
2023-05-25T12:04:14Z,42.805,6.029,13.3028,4.60094,2470.67,2023-5-25T14:06:26Z
2023-05-25T12:07:17Z,42.805,6.029,13.3021,4.60093,2470.684,2023-5-25T14:09:29Z
2023-05-25T12:10:20Z,42.805,6.029,13.3028,4.60097,2470.684,2023-5-25T14:12:32Z
2023-05-25T12:13:23Z,42.805,6.029,13.3025,4.60091,2470.684,2023-5-25T14:15:35Z
2023-05-25T12:16:26Z,42.805,6.029,13.3030,4.60093,2470.707,2023-5-25T14:18:38Z
2023-05-25T12:19:29Z,42.805,6.029,13.3038,4.60097,2470.693,2023-5-25T14:21:41Z
2023-05-25T12:22:32Z,42.805,6.029,13.3027,4.60099,2470.67,2023-5-25T14:24:45Z
2023-05-25T12:25:35Z,42.805,6.029,13.3025,4.60089,2470.661,2023-5-25T14:27:48Z
2023-05-25T12:28:38Z,42.805,6.029,13.3026,4.60104,2470.67,2023-5-25T14:30:51Z
2023-05-25T12:31:41Z,42.805,6.029,13.3024,4.60084,2470.67,2023-5-25T14:33:54Z
2023-05-25T12:34:45Z,42.805,6.029,13.3026,4.60092,2470.693,2023-5-25T14:36:57Z
2023-05-25T12:37:48Z,42.805,6.029,13.3029,4.60093,2470.646,2023-5-25T14:40:00Z
2023-05-25T12:40:51Z,42.805,6.029,13.3027,4.60088,2470.67,2023-5-25T14:43:03Z
2023-05-25T12:43:54Z,42.805,6.029,13.3023,4.60088,2470.67,2023-5-25T14:46:06Z
2023-05-25T12:46:57Z,42.805,6.029,13.3027,4.60099,2470.67,2023-5-25T14:49:09Z
2023-05-25T12:50:00Z,42.805,6.029,13.3027,4.60095,2470.67,2023-5-25T14:52:12Z
2023-05-25T12:53:03Z,42.805,6.029,13.3030,4.60103,2470.67,2023-5-25T14:55:15Z
2023-05-25T12:56:06Z,42.805,6.029,13.3021,4.60089,2470.67,2023-5-25T14:58:18Z
2023-05-25T12:59:09Z,42.805,6.029,13.3034,4.60106,2470.646,2023-5-25T15:01:22Z
2023-05-25T13:02:12Z,42.805,6.029,13.3026,4.60097,2470.67,2023-5-25T15:04:25Z
2023-05-25T13:05:15Z,42.805,6.029,13.3026,4.60086,2470.693,2023-5-25T15:07:28Z
2023-05-25T13:08:19Z,42.805,6.029,13.3023,4.60096,2470.637,2023-5-25T15:10:31Z
2023-05-25T13:11:22Z,42.805,6.029,13.3038,4.60103,2470.67,2023-5-25T15:13:34Z
2023-05-25T13:14:25Z,42.805,6.029,13.3031,4.60092,2470.661,2023-5-25T15:16:37Z
2023-05-25T13:17:28Z,42.805,6.029,13.3026,4.60099,2470.646,2023-5-25T15:19:40Z
2023-05-25T13:20:31Z,42.805,6.029,13.3027,4.60093,2470.693,2023-5-25T15:22:43Z
2023-05-25T13:23:34Z,42.805,6.029,13.3029,4.60096,2470.646,2023-5-25T15:25:46Z
2023-05-25T13:26:37Z,42.805,6.029,13.3021,4.60089,2470.646,2023-5-25T15:28:49Z
2023-05-25T13:29:40Z,42.805,6.029,13.3034,4.60099,2470.661,2023-5-25T15:31:52Z
2023-05-25T13:32:43Z,42.805,6.029,13.3031,4.60095,2470.646,2023-5-25T15:34:56Z
2023-05-25T13:35:46Z,42.805,6.029,13.3033,4.60095,2470.661,2023-5-25T15:37:59Z
2023-05-25T13:38:49Z,42.805,6.029,13.3027,4.60112,2470.661,2023-5-25T15:41:02Z
2023-05-25T13:41:52Z,42.805,6.029,13.3029,4.60095,2470.646,2023-5-25T15:44:05Z
2023-05-25T13:44:56Z,42.805,6.029,13.3026,4.60089,2470.684,2023-5-25T15:47:08Z
2023-05-25T13:47:59Z,42.805,6.029,13.3031,4.60101,2470.67,2023-5-25T15:50:11Z
2023-05-25T13:51:02Z,42.805,6.029,13.3026,4.60094,2470.661,2023-5-25T15:53:14Z
2023-05-25T13:54:05Z,42.805,6.029,13.3024,4.60104,2470.646,2023-5-25T15:56:17Z
2023-05-25T13:57:08Z,42.805,6.029,13.3030,4.60097,2470.656,2023-5-25T15:59:20Z
2023-05-25T14:00:11Z,42.805,6.029,13.3019,4.60097,2470.67,2023-5-25T16:02:23Z
2023-05-25T14:03:14Z,42.805,6.029,13.3029,4.60096,2470.646,2023-5-25T16:05:26Z
2023-05-25T14:06:17Z,42.805,6.029,13.3026,4.60092,2470.661,2023-5-25T16:08:29Z
2023-05-25T14:09:20Z,42.805,6.029,13.3026,4.60090,2470.646,2023-5-25T16:11:33Z
2023-05-25T14:12:23Z,42.805,6.029,13.3026,4.60092,2470.637,2023-5-25T16:14:36Z
2023-05-25T14:15:26Z,42.805,6.029,13.3042,4.60094,2470.661,2023-5-25T16:17:39Z
2023-05-25T14:18:29Z,42.805,6.029,13.3028,4.60091,2470.624,2023-5-25T16:20:42Z
2023-05-25T14:21:33Z,42.805,6.029,13.3026,4.60098,2470.646,2023-5-25T16:23:45Z
2023-05-25T14:24:36Z,42.805,6.029,13.3029,4.60102,2470.646,2023-5-25T16:26:48Z
2023-05-25T14:27:39Z,42.805,6.029,13.3031,4.60125,2470.637,2023-5-25T16:29:51Z
2023-05-25T14:30:43Z,42.805,6.029,13.3029,4.60093,2470.67,2023-5-25T16:32:55Z
2023-05-25T14:33:46Z,42.805,6.029,13.3031,4.60102,2470.6,2023-5-25T16:35:58Z
2023-05-25T14:36:49Z,42.805,6.029,13.3027,4.60098,2470.646,2023-5-25T16:39:01Z
2023-05-25T14:39:52Z,42.805,6.029,13.3026,4.60097,2470.646,2023-5-25T16:42:05Z
2023-05-25T14:42:55Z,42.805,6.029,13.3024,4.60094,2470.661,2023-5-25T16:45:08Z
2023-05-25T14:45:58Z,42.805,6.029,13.3026,4.60088,2470.624,2023-5-25T16:48:11Z
2023-05-25T14:49:01Z,42.805,6.029,13.3022,4.60098,2470.637,2023-5-25T16:51:14Z
2023-05-25T14:52:04Z,42.805,6.029,13.3023,4.60115,2470.624,2023-5-25T16:54:17Z
2023-05-25T14:55:08Z,42.805,6.029,13.3021,4.60104,2470.624,2023-5-25T16:57:20Z
2023-05-25T14:58:11Z,42.805,6.029,13.3021,4.60097,2470.637,2023-5-25T17:00:23Z
2023-05-25T15:01:14Z,42.805,6.029,13.3034,4.60104,2470.646,2023-5-25T17:03:26Z
2023-05-25T15:04:17Z,42.805,6.029,13.3024,4.60107,2470.624,2023-5-25T17:06:29Z
2023-05-25T15:07:20Z,42.805,6.029,13.3033,4.60111,2470.646,2023-5-25T17:09:32Z
2023-05-25T15:10:23Z,42.805,6.029,13.3023,4.60099,2470.646,2023-5-25T17:12:35Z
2023-05-25T15:13:26Z,42.805,6.029,13.3025,4.60094,2470.637,2023-5-25T17:15:38Z